Regional Weather Roundup
Issued by NWS

Home | Current Version | Previous Version | Graphics & Text | Print | Product List | Glossary On
Versions: 1 2 3 4 5 6 7 8 9 10 11 12 13 14 15 16 17 18 19 20 21 22 23 24 25 26 27 28 29 30 31 32 33 34 35 36 37 38 39 40 41 42 43 44 45 46 47 48 49 50
651
ASUS43 KLMK 211910
RWRKY
KENTUCKY REGIONAL WEATHER ROUNDUP
NATIONAL WEATHER SERVICE LOUISVILLE KY
200 PM EST WED FEB 21 2018

NOTE "FAIR" INDICATES FEW OR NO CLOUDS BELOW 12,000 FEET
WITH NO SIGNIFICANT WEATHER AND/OR OBSTRUCTIONS TO VISIBILITY.

KYZ001>023-026-027-061>063-070>075-212000-
WESTERN AND SOUTH CENTRAL KENTUCKY

CITY           SKY/WX    TMP DP  RH WIND       PRES   REMARKS
PADUCAH        LGT RAIN  41  38  89 NE12      30.39F
HENDERSON      LGT RAIN  40  38  93 N8        30.43F WCI  34
OWENSBORO      LGT RAIN  42  39  89 N8        30.42F
HOPKINSVILLE   CLOUDY    46  45  96 N9        30.37S
BOWLING GREEN  LGT RAIN  50  49  96 NW7       30.37R
GLASGOW        RAIN      59  59 100 CALM      30.35R
$$

KYZ024-025-028>034-038-045-046-053-212000-
NORTH CENTRAL KENTUCKY

CITY           SKY/WX    TMP DP  RH WIND       PRES   REMARKS
LOUISVILLE/SDF LGT RAIN  50  47  89 N14       30.38F
LOUISVILLE/LOU CLOUDY    49  48  97 NW9       30.38F
FORT KNOX      CLOUDY    50  50 100 NW8       30.38F FOG
$$

KYZ035>037-039>044-047>052-055>060-089>105-212000-
NORTHEAST KENTUCKY

CITY           SKY/WX    TMP DP  RH WIND       PRES   REMARKS
LEXINGTON      CLOUDY    61  55  81 N10       30.35F
COVINGTON      CLOUDY    47  47 100 N12       30.39F
FRANKFORT      LGT RAIN  58  54  86 NW9       30.36R FOG
$$

KYZ054-064>069-076>088-106>120-212000-
SOUTHEAST KENTUCKY

CITY           SKY/WX    TMP DP  RH WIND       PRES   REMARKS
JACKSON        LGT RAIN  59  57  93 VRB3      30.34R
LONDON         RAIN      62  59  90 NW8       30.32S FOG
SOMERSET       CLOUDY    63  54  72 MISG      30.34S
MIDDLESBORO    NOT AVBL
MONTICELLO     NOT AVBL
$$





USA.gov is the U.S. government's official web portal to all federal, state and local government web resources and services.